RH
43 44 45 46 47 50 50 51 52 53 56 60 61 60 59 63 66 67 72 75 75 79 84 86 81 76 75 71 66 65 63 60 56 53 51 50 51 56 58 59 58 57 57 58 58 57 57 58 58 58 58 58 58 58 54 50 50 53 55 57 59 60 61
47 47 49 50 50 52 54 55 55 56 57 60 62 59 56 59 63 65 70 75 75 76 81 82 80 78 74 68 65 65 63 62 60 57 54 52 51 53 55 57 58 58 58 57 56 57 58 59 59 59 59 58 59 59 56 52 51 55 58 58 58 60 59
49 49 51 52 53 54 56 57 57 58 58 60 61 58 56 57 60 63 68 74 76 76 79 80 78 79 76 69 66 66 63 62 62 60 58 56 55 55 56 56 56 57 57 56 55 55 56 57 57 59 60 59 59 59 59 57 55 56 58 57 57 60 59
51 51 52 53 55 55 56 57 58 58 58 60 61 61 60 59 59 59 64 72 78 78 81 81 78 78 78 74 71 68 66 65 64 64 63 62 60 58 58 59 58 58 58 57 56 54 54 55 56 58 59 58 58 60 61 60 59 59 58 57 59 62 62
51 52 53 54 55 56 57 57 58 58 58 59 60 62 62 62 62 60 60 68 77 80 80 79 78 77 75 75 74 72 69 67 66 65 65 66 64 62 61 60 61 62 62 61 59 57 55 53 55 59 60 59 59 61 63 62 63 63 62 60 61 64 65
52 52 52 52 53 55 57 58 57 58 58 58 59 62 64 63 63 62 60 63 71 79 82 80 79 78 76 74 74 72 69 67 66 66 65 65 65 63 61 60 62 64 64 64 64 62 59 56 57 60 62 63 63 64 66 67 67 68 66 64 63 65 66
54 55 53 52 51 52 55 57 57 57 58 58 59 62 64 64 63 64 62 62 63 69 78 82 81 80 80 79 76 72 68 65 65 65 65 65 65 63 62 60 60 62 65 66 66 65 64 61 61 63 65 67 68 68 68 70 70 70 69 67 66 66 67
57 58 57 54 52 52 53 55 57 58 59 60 62 64 65 66 65 64 64 65 64 63 67 74 78 78 79 80 78 74 69 67 65 64 64 66 68 67 65 63 63 62 64 66 66 66 66 65 65 67 69 71 73 73 73 74 72 70 70 71 71 69 69
62 62 62 60 57 55 54 54 56 59 60 61 63 65 67 67 67 65 64 64 65 66 64 65 68 71 75 78 79 78 75 73 71 68 66 66 68 70 68 67 67 66 65 65 66 66 65 65 67 71 73 73 74 75 76 76 74 72 72 72 73 71 70
65 65 65 64 62 60 57 56 56 58 60 62 65 67 69 70 69 67 66 64 63 66 67 65 64 66 69 72 75 77 77 78 76 73 71 67 66 68 69 69 69 68 66 65 65 65 66 66 69 74 76 73 72 73 73 75 75 74 74 74 73 72 70
67 67 67 66 66 65 62 60 58 58 59 61 66 68 69 70 69 67 66 66 64 64 65 65 64 65 65 66 69 71 74 78 79 77 75 72 69 68 67 67 67 66 65 64 63 64 67 70 72 74 74 71 71 72 72 73 74 73 74 76 76 74 72
69 68 67 67 68 68 67 64 60 58 60 62 65 67 67 67 68 68 66 66 66 66 65 64 63 64 63 63 64 66 69 73 76 77 77 76 76 72 67 64 66 66 66 65 63 63 66 70 73 73 72 71 70 72 72 74 75 73 73 75 77 76 74
77 75 72 69 66 67 69 67 65 62 62 64 65 65 64 64 67 69 68 67 66 67 69 68 63 60 60 61 62 64 65 68 71 74 77 77 76 74 71 70 69 69 68 67 65 65 66 69 72 73 72 72 72 73 74 75 75 73 72 73 75 76 76
74 79 78 75 72 72 70 68 66 64 64 66 67 64 63 64 66 69 69 68 66 67 70 71 67 61 58 59 60 61 63 65 68 70 73 75 74 75 77 76 73 72 71 70 68 68 67 69 73 74 74 74 73 73 75 76 75 75 73 73 73 74 75
59 62 65 68 74 77 76 73 69 65 65 69 71 67 63 64 65 67 69 67 65 66 69 69 68 63 57 56 59 61 61 64 66 67 68 70 73 75 77 75 73 73 74 74 73 72 71 72 74 75 75 75 73 74 75 76 77 78 77 76 74 73 74
55 53 52 55 61 66 71 73 73 71 70 71 74 71 67 67 66 65 67 67 64 63 64 64 65 62 57 57 60 60 59 60 61 61 63 67 71 74 74 74 73 74 75 76 76 76 74 74 74 74 75 76 75 75 76 76 77 77 77 77 77 75 74
54 54 52 51 53 57 61 61 63 69 74 73 74 74 70 69 69 65 65 66 64 62 62 64 65 61 58 58 59 57 56 57 56 56 59 64 69 73 74 74 74 74 76 78 78 76 73 73 73 74 76 78 78 78 79 78 79 77 77 78 77 76 76
48 50 52 52 52 54 57 56 52 58 71 74 73 75 73 71 71 68 64 65 65 64 64 66 64 62 59 58 57 55 54 56 57 58 60 63 68 72 73 73 74 75 76 78 79 75 72 71 71 73 76 77 78 79 78 78 80 81 79 79 77 76 77
43 45 48 51 53 53 54 55 51 52 64 72 72 74 73 72 74 72 65 63 64 63 64 66 64 62 62 60 57 55 54 57 59 60 60 64 68 72 72 71 73 75 76 77 76 74 73 73 72 73 75 76 78 80 79 80 83 84 82 81 78 77 77
41 42 44 46 51 53 52 54 55 55 61 70 74 74 71 70 73 73 67 64 63 61 63 65 65 64 63 60 56 54 55 58 60 60 62 67 69 71 71 70 72 74 75 75 75 74 75 75 73 73 76 79 82 83 83 84 85 85 84 82 79 78 77
41 42 44 44 47 51 52 53 56 59 61 65 71 72 70 67 68 69 68 66 62 59 60 64 65 66 65 61 56 53 54 58 60 61 63 65 65 67 69 71 73 74 75 75 76 78 79 78 75 76 82 88 92 91 89 88 87 87 86 82 78 78 79
41 41 44 46 46 49 51 51 54 59 61 62 65 69 67 64 64 65 66 66 62 58 58 63 66 67 66 63 58 54 54 58 59 59 59 60 62 65 68 70 73 77 79 80 82 82 81 80 78 80 86 93 96 95 93 91 89 88 86 81 79 80 81
41 41 42 44 46 47 49 51 53 57 61 63 65 68 67 62 61 63 64 65 63 58 57 61 65 68 68 65 59 56 56 58 58 56 55 56 60 62 66 70 72 77 82 84 85 86 85 83 82 81 84 89 91 92 92 90 88 87 86 83 81 81 81
41 41 42 44 45 46 47 49 51 54 59 63 64 67 68 63 59 60 64 66 63 60 60 61 63 68 72 67 60 57 58 58 58 56 54 55 58 60 66 70 70 73 80 83 85 87 87 87 87 87 85 86 87 88 88 88 88 87 86 85 84 83 83
44 43 43 43 44 45 46 48 48 50 55 61 63 64 65 64 60 59 63 66 64 64 64 62 61 67 71 68 62 58 57 58 58 57 54 55 57 61 65 67 66 69 76 81 85 89 89 89 90 90 88 88 88 88 88 89 89 89 89 87 87 86 85
47 47 46 45 44 45 45 46 48 49 51 56 61 62 63 64 63 62 64 66 66 66 66 63 63 67 68 65 63 60 57 57 57 55 52 53 58 64 64 61 58 62 69 77 84 88 88 87 89 90 90 89 89 89 90 91 90 90 91 90 89 89 86
49 49 48 48 47 47 46 46 48 50 50 52 55 59 64 66 66 65 65 67 67 68 68 65 65 69 70 65 62 61 60 59 57 54 51 52 58 64 62 55 52 56 61 67 76 83 85 85 87 89 90 89 89 89 89 89 89 90 90 89 89 88 86
51 51 50 50 50 49 48 47 47 48 49 50 51 54 60 64 65 64 64 66 67 66 66 66 64 67 69 65 62 63 62 60 59 56 51 51 56 60 59 54 52 54 55 57 64 74 81 82 82 84 86 86 87 88 87 87 87 87 86 85 84 84 82
51 52 53 53 52 51 51 50 49 48 49 49 49 52 56 58 61 62 61 63 64 62 61 65 65 65 65 64 63 65 64 62 60 55 52 51 55 60 60 55 52 53 52 51 54 63 71 73 72 73 76 77 77 77 79 81 82 81 79 78 76 73 69
51 54 57 57 56 56 55 53 51 50 49 47 48 51 54 55 58 60 60 61 62 58 58 64 68 67 66 64 64 65 67 67 63 57 54 54 55 59 61 59 54 52 50 48 47 52 58 61 60 59 62 66 66 65 65 66 67 67 67 66 63 58 54
54 56 58 59 60 59 58 56 54 52 50 47 46 48 51 52 55 58 61 62 60 57 58 63 67 71 70 68 65 65 69 71 66 59 56 56 55 57 60 60 56 52 49 46 43 44 47 48 47 47 49 53 55 55 54 51 49 48 49 48 45 43 41
57 58 60 62 62 62 61 59 57 54 52 48 46 47 48 48 50 55 60 62 61 60 61 61 65 71 73 71 69 68 68 71 70 63 56 53 53 55 58 60 58 53 48 43 40 40 42 42 41 42 43 44 45 45 45 43 40 39 39 37 36 36 34
60 62 64 64 66 65 64 62 59 58 55 51 48 48 47 46 46 49 55 60 61 62 62 61 65 72 73 71 71 72 72 72 72 67 59 53 52 55 59 61 60 53 45 41 39 41 41 40 40 41 41 42 42 41 41 39 39 38 37 37 37 37 34
63 65 66 66 68 67 67 65 63 62 59 55 51 48 46 44 43 45 50 55 59 61 61 62 65 71 72 68 69 74 79 77 75 71 63 57 56 58 61 64 62 53 45 43 43 43 42 41 41 40 39 39 40 39 39 39 38 37 37 38 39 39 36
64 66 68 68 68 69 69 68 67 65 63 59 54 49 45 43 43 43 46 50 55 58 60 62 63 68 72 69 67 72 79 78 76 74 67 61 61 62 65 66 62 53 47 46 46 45 45 44 42 39 36 35 37 38 39 39 40 38 37 37 38 39 39
65 67 70 71 71 72 71 71 70 68 66 64 59 52 47 44 43 43 45 48 52 55 57 60 62 67 74 73 69 71 76 76 75 76 71 65 64 66 65 64 58 50 46 47 45 42 42 42 40 38 35 34 36 37 39 40 42 41 37 35 34 35 36
71 72 74 74 73 74 73 72 71 70 69 68 63 55 49 47 44 43 44 48 52 53 56 59 62 67 74 74 68 70 75 77 76 76 74 69 67 67 66 61 54 47 44 44 43 40 38 36 36 36 36 37 38 39 41 43 43 40 37 34 35 35 35
75 75 75 75 75 75 74 72 71 70 69 68 64 57 53 51 48 44 47 51 53 53 55 59 62 66 71 72 69 68 73 77 77 76 75 73 72 70 67 61 52 46 43 42 40 38 35 35 35 34 34 36 39 41 42 43 42 39 37 37 38 38 37